Torna al catalogo

O3B FM7

AttivoComunicazioniMEO
NORAD 40080·PAYLOAD·🇱🇺 Luxembourg

Lanciato Jul 10, 2014 da Guiana Space Centre

Loading…

Prossimi Passaggi (prossime 24 ore)

TLE

AggiornatoSource: CelesTrak SupGP

Epoca: Sep 13, 2026, 13:59 UTC

1 40080C 14038B   26256.58333333  .00000000  00000+0  00000+0 0  2564
2 40080   0.0422 349.3031 0002908 143.3659 191.1599  5.00115765    11

Traccia O3B FM7 in tempo reale con AllMySat

Download on the App Store